1517281201.08,26767,9.88,72962.5,-7.15,-8.17,-8.03,0,*54
1517281202.35,26768,9.88,72960.5,-7.13,-8.11,-7.99,0,*57
1517281203.63,26769,9.88,72960.5,-7.13,-8.11,-8.07,0,*5E
1517281204.87,26770,9.88,72962.8,-7.15,-8.11,-8.03,0,*54
1517281206.11,26771,9.88,72966.5,-7.15,-8.03,-8.03,0,*56
1517281207.37,26772,9.88,72962.3,-7.13,-7.99,-7.99,0,*53
1517281208.64,26773,9.88,72960.8,-7.13,-7.99,-7.99,0,*52
1517281209.91,26774,9.88,72960.5,-7.13,-7.99,-7.99,0,*55
1517281211.17,26775,9.88,72970.8,-7.13,-7.99,-7.99,0,*54
1517281212.41,26776,9.88,72982.0,-7.15,-8.03,-8.03,0,*51
1517281213.69,26777,9.88,72998.8,-7.13,-8.07,-8.07,0,*56
1517281214.9,26778,9.88,73008.3,-7.13,-8.21,-8.21,0,*59
1517281216.18,26779,9.88,72996.0,-7.13,-8.11,-8.07,0,*5F
1517281217.37,26780,9.88,72974.8,-7.11,-8.21,-8.25,0,*58
1517281218.57,26781,9.94,72956.8,-7.15,-8.37,-8.41,0,*58
1517281219.76,26782,9.88,72966.8,-7.15,-8.29,-8.25,0,*56
1517281220.95,26783,9.88,72976.3,-7.15,-8.17,-8.25,0,*5A
1517281222.17,26784,9.88,72986.0,-7.13,-8.25,-8.25,0,*5A
1517281223.38,26785,9.88,72968.0,-7.13,-8.25,-8.33,0,*5C
1517281224.59,26786,9.88,72972.3,-7.13,-8.33,-8.33,0,*58
1517281225.8,26787,9.88,72952.3,-7.13,-8.45,-8.33,0,*58
1517281227.02,26788,9.88,72926.3,-7.13,-8.37,-8.25,0,*55
1517281228.23,26789,9.88,72908.3,-7.13,-8.25,-8.25,0,*57
1517281229.42,26790,9.88,72872.8,-7.15,-8.29,-8.29,0,*59
1517281230.63,26791,9.88,72852.0,-7.15,-8.37,-8.37,0,*58
1517281231.83,26792,9.88,72888.0,-7.15,-8.37,-8.37,0,*5B
1517281233.03,26793,9.88,72924.0,-7.15,-8.37,-8.29,0,*55
1517281234.23,26794,9.94,72880.5,-7.15,-8.37,-8.37,0,*5D
1517281235.43,26795,9.94,72846.3,-7.15,-8.41,-8.37,0,*5D
1517281236.63,26796,9.88,72820.0,-7.15,-8.41,-8.41,0,*5F
1517281237.82,26797,9.88,72760.0,-7.15,-8.63,-8.63,0,*5E
1517281239.01,26798,9.88,72832.0,-7.15,-8.55,-8.55,0,*51
1517281240.21,26799,9.88,72842.3,-7.15,-8.37,-8.41,0,*51
1517281241.43,26800,9.88,72798.5,-7.17,-8.37,-8.29,0,*52
1517281242.65,26801,9.88,72810.3,-7.17,-8.29,-8.17,0,*51
1517281243.84,26802,9.88,72838.3,-7.15,-8.29,-8.29,0,*5D
1517281245.07,26803,9.88,72852.3,-7.17,-8.17,-8.17,0,*5E
1517281246.29,26804,9.88,72872.8,-7.17,-8.17,-8.17,0,*59
1517281247.48,26805,9.88,72864.0,-7.15,-8.25,-8.17,0,*5B
1517281248.71,26806,9.88,72902.8,-7.15,-8.11,-8.17,0,*5F
1517281249.98,26807,9.88,72940.0,-7.17,-8.11,-8.03,0,*59
1517281251.2,26808,9.94,72954.3,-7.15,-8.17,-8.11,0,*51
1517281252.45,26809,9.88,72952.3,-7.15,-8.11,-8.11,0,*56
1517281253.72,26810,9.88,72944.8,-7.17,-8.03,-8.03,0,*5C
1517281254.96,26811,9.88,72958.0,-7.15,-8.03,-8.03,0,*5F
1517281256.19,26812,9.88,72972.0,-7.15,-8.03,-8.03,0,*5C
1517281257.43,26813,9.88,72968.8,-7.15,-8.03,-8.03,0,*5D
1517281258.68,26814,9.88,72972.0,-7.15,-8.03,-8.11,0,*59
1517281259.91,26815,9.88,72982.0,-7.15,-8.03,-8.03,0,*5B
1517281261.15,26816,9.88,72978.5,-7.15,-8.03,-8.03,0,*58
1517281262.39,26817,9.94,72984.0,-7.15,-8.03,-8.03,0,*59
1517281263.63,26818,9.94,72982.8,-7.15,-8.03,-8.03,0,*56
1517281264.9,26819,9.88,72972.5,-7.13,-8.07,-7.99,0,*59
1517281266.16,26820,9.88,72976.8,-7.13,-7.99,-7.99,0,*5B
1517281267.43,26821,9.88,72984.8,-7.13,-7.99,-7.99,0,*5A
1517281268.67,26822,9.94,72990.3,-7.15,-8.03,-8.11,0,*5C
1517281269.91,26823,9.88,72992.5,-7.15,-8.03,-8.03,0,*5E
1517281271.15,26824,9.88,72986.3,-7.15,-8.03,-8.03,0,*59
1517281272.4,26825,9.88,72980.0,-7.15,-8.11,-8.03,0,*5B
1517281273.64,26826,9.88,72970.5,-7.15,-8.11,-8.11,0,*5B
1517281274.89,26827,9.94,72960.0,-7.15,-8.11,-8.11,0,*5A
1517281276.09,26828,9.88,72944.8,-7.15,-8.17,-8.17,0,*55
1517281277.29,26829,9.88,72938.0,-7.15,-8.37,-8.29,0,*5B
1517281278.48,26830,9.88,72934.0,-7.15,-8.29,-8.29,0,*5C
1517281279.68,26831,9.88,72924.3,-7.15,-8.29,-8.37,0,*52
1517281280.87,26832,9.88,72934.3,-7.15,-8.29,-8.17,0,*53
1517281282.09,26833,9.88,72932.0,-7.15,-8.17,-8.11,0,*59
1517281283.34,26834,9.88,72924.0,-7.15,-8.11,-8.11,0,*58
1517281284.59,26835,9.94,72928.0,-7.15,-8.11,-8.11,0,*59
1517281285.81,26836,9.88,72920.5,-7.15,-8.17,-8.11,0,*5C
1517281287.01,26837,9.88,72914.3,-7.15,-8.17,-8.17,0,*5B
1517281288.2,26838,9.88,72912.0,-7.15,-8.25,-8.25,0,*54
1517281289.39,26839,9.88,72930.0,-7.15,-8.29,-8.25,0,*59
1517281290.61,26840,9.88,72940.0,-7.17,-8.29,-8.25,0,*55
1517281291.84,26841,9.88,72944.8,-7.17,-8.25,-8.17,0,*59
1517281293.03,26842,9.88,72952.0,-7.15,-8.17,-8.25,0,*58
1517281294.25,26843,9.94,72954.3,-7.15,-8.17,-8.11,0,*5E
1517281295.49,26844,9.88,72958.5,-7.15,-8.03,-8.03,0,*5F
1517281296.73,26845,9.88,72972.8,-7.15,-8.03,-8.03,0,*5E
1517281297.94,26846,9.88,72978.8,-7.13,-8.33,-8.33,0,*5B
1517281299.15,26847,9.88,72976.0,-7.13,-8.25,-8.25,0,*5A
1517281300.36,26848,9.88,72972.5,-7.13,-8.25,-8.33,0,*52
1517281301.55,26849,9.94,72978.0,-7.11,-8.25,-8.33,0,*51
1517281302.75,26850,9.88,72972.8,-7.15,-8.29,-8.37,0,*55
1517281303.97,26851,9.88,72960.8,-7.17,-8.29,-8.29,0,*59
1517281305.17,26852,9.88,72948.3,-7.15,-8.29,-8.37,0,*57
1517281306.36,26853,9.88,72942.3,-7.15,-8.29,-8.29,0,*59
1517281307.56,26854,9.94,72964.3,-7.15,-8.37,-8.37,0,*5E
1517281308.77,26855,9.94,72962.3,-7.15,-8.41,-8.37,0,*5E
1517281309.97,26856,9.88,72968.0,-7.15,-8.41,-8.37,0,*5D
1517281311.22,26857,9.94,72992.8,-7.17,-8.37,-8.11,0,*5B
1517281312.48,26858,9.94,72976.8,-7.17,-8.51,-8.37,0,*50
1517281313.67,26859,9.88,72952.0,-7.15,-8.41,-8.41,0,*53
1517281314.92,26860,9.88,72926.0,-7.15,-8.51,-8.51,0,*59
1517281316.14,26861,9.88,72910.5,-7.15,-8.41,-8.51,0,*59
1517281317.33,26862,9.88,72898.5,-7.15,-8.29,-8.29,0,*5B
1517281318.56,26863,9.88,72912.8,-7.17,-8.25,-8.25,0,*58
1517281319.75,26864,9.88,72918.5,-7.15,-8.17,-8.25,0,*5C
1517281320.95,26865,9.88,72918.0,-7.15,-8.25,-8.25,0,*5C
1517281322.17,26866,9.88,72960.5,-7.15,-8.37,-8.51,0,*5F
1517281323.39,26867,9.88,72876.5,-7.17,-8.55,-8.55,0,*5C
1517281324.6,26868,9.88,72834.8,-7.17,-8.67,-8.75,0,*50
1517281325.8,26869,9.88,72856.3,-7.15,-8.75,-8.93,0,*58
1517281327.03,26870,9.88,72860.5,-7.15,-9.11,-9.23,0,*59
1517281328.29,26871,9.88,72902.0,-7.17,-9.57,-9.45,0,*58
1517281329.54,26872,9.88,72898.8,-7.17,-10.01,-9.57,0,*63
1517281330.8,26873,9.88,72896.0,-7.17,-9.71,-9.37,0,*5B
1517281332.04,26874,9.88,72932.8,-7.17,-9.49,-9.31,0,*51
1517281333.27,26875,9.94,72942.0,-7.17,-9.19,-8.89,0,*57
1517281334.49,26876,9.88,72924.0,-7.21,-8.93,-8.71,0,*55
1517281335.71,26877,9.88,72898.5,-7.21,-8.85,-8.67,0,*54
1517281336.93,26878,9.88,72878.0,-7.17,-8.67,-8.63,0,*56
1517281338.14,26879,9.88,72878.8,-7.17,-8.63,-8.55,0,*56
1517281339.36,26880,9.88,72908.3,-7.21,-8.67,-8.59,0,*5D
1517281340.57,26881,9.88,72922.8,-7.21,-8.59,-8.55,0,*5D
1517281341.77,26882,9.88,72914.3,-7.23,-8.55,-8.45,0,*51
1517281342.99,26883,9.94,72920.3,-7.21,-8.41,-8.41,0,*53
1517281344.21,26884,9.88,72922.3,-7.21,-8.45,-8.33,0,*55
1517281345.4,26885,9.88,72920.5,-7.23,-8.33,-8.29,0,*5C
1517281346.62,26886,9.88,72920.0,-7.21,-8.21,-8.21,0,*56
1517281347.84,26887,9.88,72922.5,-7.21,-8.21,-8.21,0,*57
1517281349.06,26888,9.88,72938.5,-7.21,-8.17,-8.17,0,*58
1517281350.27,26889,9.88,72944.8,-7.21,-8.21,-8.17,0,*5C
1517281351.47,26890,9.88,72930.8,-7.23,-8.17,-8.17,0,*53
1517281352.72,26891,9.88,72926.0,-7.23,-8.07,-8.07,0,*52
1517281353.98,26892,9.88,72926.5,-7.23,-8.07,-8.07,0,*51
1517281355.24,26893,9.88,72928.5,-7.23,-8.07,-8.07,0,*50
1517281356.52,26894,9.94,72932.3,-7.21,-8.07,-8.07,0,*55
1517281357.8,26895,9.88,72936.0,-7.21,-8.07,-8.07,0,*54
1517281359.06,26896,9.88,72960.3,-7.21,-7.99,-8.03,0,*5B
1517281360.3,26897,9.88,72942.3,-7.23,-8.03,-8.03,0,*54
1517281361.57,26898,9.94,72930.0,-7.17,-7.99,-7.99,0,*5C
1517281362.84,26899,9.94,72910.8,-7.17,-8.03,-8.03,0,*5D
1517281364.11,26900,9.88,72918.0,-7.17,-8.03,-7.99,0,*50
1517281365.38,26901,9.88,72914.8,-7.17,-7.99,-7.99,0,*5D
1517281366.65,26902,9.88,72908.3,-7.17,-7.99,-7.99,0,*5E
1517281367.93,26903,9.88,72930.5,-7.17,-8.11,-7.99,0,*50
1517281369.2,26904,9.88,72932.0,-7.17,-8.03,-7.99,0,*54
1517281370.47,26905,9.88,72940.8,-7.17,-8.03,-7.99,0,*55
1517281371.74,26906,9.88,72932.8,-7.17,-7.99,-7.99,0,*5A
1517281373.01,26907,9.88,72936.8,-7.17,-7.95,-7.99,0,*57
1517281374.28,26908,9.88,72968.0,-7.17,-7.99,-7.99,0,*54
1517281375.56,26909,9.94,72980.8,-7.17,-7.99,-7.99,0,*55
1517281376.8,26910,9.88,72986.3,-7.15,-7.95,-7.95,0,*5F
1517281378.06,26911,9.88,72988.5,-7.13,-7.95,-7.95,0,*58
1517281379.33,26912,9.88,72992.8,-7.17,-7.99,-7.99,0,*5F
1517281380.57,26913,9.88,72992.5,-7.15,-7.95,-7.95,0,*5C
1517281381.82,26914,9.88,72968.3,-7.15,-7.99,-7.99,0,*5B
1517281383.07,26915,9.88,72956.3,-7.15,-7.95,-7.99,0,*56
1517281384.31,26916,9.88,72968.0,-7.15,-7.99,-7.99,0,*59
1517281385.58,26917,9.94,72966.8,-7.17,-7.99,-7.99,0,*5A
1517281386.83,26918,9.94,72970.5,-7.15,-7.99,-7.99,0,*57
1517281388.07,26919,9.88,72988.0,-7.15,-7.99,-7.99,0,*56
1517281389.34,26920,9.88,72994.8,-7.17,-7.99,-7.99,0,*5E
1517281390.62,26921,9.88,72992.0,-7.17,-7.99,-7.99,0,*5F
1517281391.86,26922,9.88,72996.8,-7.15,-7.99,-7.99,0,*5E
1517281393.11,26923,9.88,73006.8,-7.15,-7.99,-7.99,0,*5F
1517281394.35,26924,9.88,73000.5,-7.15,-7.99,-7.95,0,*54
1517281395.62,26925,9.88,73006.8,-7.17,-7.99,-7.99,0,*5B
1517281396.87,26926,9.88,73018.0,-7.15,-7.99,-7.99,0,*5A
1517281398.11,26927,9.94,73022.0,-7.15,-7.95,-7.95,0,*5B
1517281399.35,26928,9.88,73016.0,-7.15,-7.99,-7.99,0,*54
1517281400.6,26929,9.94,73016.8,-7.15,-7.95,-7.99,0,*59
1517281401.87,26930,9.88,73006.3,-7.17,-7.99,-7.99,0,*5F
1517281403.12,26931,9.88,73004.5,-7.15,-7.99,-8.11,0,*53
1517281404.36,26932,9.88,73006.0,-7.15,-8.11,-8.03,0,*5C
1517281405.63,26933,9.88,73004.5,-7.17,-8.03,-8.03,0,*5C
1517281406.87,26934,9.94,73018.0,-7.15,-8.03,-7.99,0,*55
1517281408.11,26935,9.88,73030.3,-7.15,-8.03,-7.99,0,*54
1517281409.35,26936,9.88,73038.3,-7.15,-7.99,-7.95,0,*57
1517281410.6,26937,9.88,73038.3,-7.17,-7.87,-7.95,0,*5B
1517281411.84,26938,9.88,73042.0,-7.15,-7.95,-7.99,0,*59
1517281413.11,26939,9.88,73040.8,-7.13,-7.99,-7.95,0,*5E
1517281414.34,26940,9.88,73032.5,-7.15,-8.03,-8.03,0,*5A
1517281415.59,26941,9.88,73018.3,-7.15,-8.11,-8.03,0,*58
1517281416.87,26942,9.94,73012.0,-7.13,-8.07,-8.07,0,*5E
1517281418.14,26943,9.94,73022.3,-7.13,-8.11,-8.11,0,*5F
1517281419.38,26944,9.88,73020.0,-7.13,-8.07,-8.21,0,*5C
1517281420.6,26945,9.88,73032.8,-7.13,-8.21,-8.21,0,*59
1517281421.82,26946,9.94,72990.3,-7.15,-8.51,-8.41,0,*5D
1517281423.01,26947,9.88,72990.5,-7.15,-8.29,-8.29,0,*5D
1517281424.21,26948,9.88,72978.0,-7.15,-8.17,-8.17,0,*52
1517281425.4,26949,9.94,72972.3,-7.15,-8.25,-8.17,0,*52
1517281426.6,26950,9.88,72962.8,-7.15,-8.25,-8.25,0,*5B
1517281427.82,26951,9.88,72972.3,-7.17,-8.37,-8.29,0,*57
1517281429.01,26952,9.88,72962.5,-7.15,-8.29,-8.29,0,*59
1517281430.23,26953,9.88,72964.8,-7.17,-8.29,-8.29,0,*5A
1517281431.43,26954,9.94,72974.8,-7.15,-8.29,-8.37,0,*50
1517281432.65,26955,9.88,72978.0,-7.17,-8.41,-8.41,0,*5C
1517281433.9,26956,9.88,72978.3,-7.17,-8.41,-8.51,0,*5E
1517281435.09,26957,9.88,72970.8,-7.15,-8.29,-8.29,0,*5C
1517281436.33,26958,9.88,72954.0,-7.17,-8.37,-8.37,0,*51
1517281437.55,26959,9.88,72940.8,-7.17,-8.37,-8.37,0,*50
1517281438.77,26960,9.94,72916.8,-7.17,-8.29,-8.29,0,*5A
1517281440.0,26961,9.88,72910.3,-7.17,-8.17,-8.17,0,*5B
1517281441.22,26962,9.88,72912.8,-7.17,-8.25,-8.25,0,*58
1517281442.41,26963,9.88,72910.3,-7.15,-8.25,-8.25,0,*5B
1517281443.63,26964,9.88,72898.5,-7.17,-8.25,-8.17,0,*5F
1517281444.86,26965,9.94,72886.0,-7.17,-8.29,-8.17,0,*52
1517281446.07,26966,9.94,72856.5,-7.21,-8.33,-8.29,0,*52
1517281447.29,26967,9.88,72862.0,-7.17,-8.29,-8.29,0,*5D
1517281448.51,26968,9.88,72836.5,-7.17,-8.25,-8.37,0,*51
1517281449.73,26969,9.88,72846.0,-7.17,-8.29,-8.29,0,*53
1517281450.95,26970,9.88,72866.5,-7.17,-8.29,-8.29,0,*5B
1517281452.17,26971,9.88,72896.8,-7.17,-8.29,-8.29,0,*5A
1517281453.39,26972,9.94,72890.0,-7.21,-8.41,-8.41,0,*5C
1517281454.6,26973,9.88,72868.0,-7.21,-8.33,-8.33,0,*5D
1517281455.81,26974,9.94,72884.0,-7.21,-8.29,-8.33,0,*51
1517281457.03,26975,9.88,72880.0,-7.21,-8.21,-8.29,0,*53
1517281458.25,26976,9.88,72890.0,-7.21,-8.29,-8.21,0,*50
1517281459.47,26977,9.94,72896.0,-7.21,-8.21,-8.21,0,*59
1517281460.69,26978,9.88,72906.0,-7.21,-8.21,-8.21,0,*56
1517281461.94,26979,9.88,72896.0,-7.21,-8.21,-8.07,0,*53
1517281463.22,26980,9.88,72906.8,-7.21,-8.07,-8.07,0,*51
1517281464.5,26981,9.88,72904.0,-7.17,-8.11,-8.11,0,*55
1517281465.75,26982,9.88,72908.3,-7.17,-8.17,-8.11,0,*50
1517281466.97,26983,9.94,72918.5,-7.17,-8.25,-8.17,0,*56
1517281468.19,26984,9.88,72920.5,-7.17,-8.17,-8.25,0,*51
1517281469.41,26985,9.88,72926.3,-7.21,-8.17,-8.17,0,*54
1517281470.68,26986,9.94,72928.8,-7.17,-8.03,-8.03,0,*52
1517281471.94,26987,9.88,72926.0,-7.17,-8.03,-8.03,0,*53
1517281473.21,26988,9.88,72928.8,-7.17,-8.03,-8.03,0,*5C
1517281474.47,26989,9.94,72932.5,-7.17,-8.03,-8.03,0,*5D
1517281475.75,26990,9.88,72932.0,-7.17,-8.11,-8.11,0,*55
1517281477.02,26991,9.94,72940.0,-7.17,-8.03,-8.03,0,*54
1517281478.28,26992,9.88,72942.0,-7.17,-8.03,-8.03,0,*57
1517281479.52,26993,9.94,72950.0,-7.15,-8.03,-8.11,0,*57
1517281480.78,26994,9.94,72948.0,-7.21,-8.17,-8.07,0,*55
1517281482.02,26995,9.88,72954.3,-7.15,-8.03,-8.03,0,*52
1517281483.25,26996,9.88,72952.3,-7.15,-8.03,-8.03,0,*51
1517281484.52,26997,9.88,72956.0,-7.17,-8.03,-8.11,0,*51
1517281485.77,26998,9.88,72960.0,-7.15,-8.11,-8.03,0,*5C
1517281487.04,26999,9.94,72968.8,-7.17,-8.11,-8.03,0,*5F
1517281488.32,27000,9.88,72974.8,-7.17,-8.11,-8.11,0,*54
1517281489.58,27001,9.88,72978.5,-7.17,-8.03,-8.03,0,*55
1517281490.82,27002,9.88,72982.5,-7.15,-8.03,-8.03,0,*54
1517281492.07,27003,9.88,72984.0,-7.15,-8.11,-7.99,0,*5A
1517281493.34,27004,9.88,72984.0,-7.17,-8.03,-8.03,0,*50
1517281494.58,27005,9.88,72984.0,-7.15,-8.03,-8.11,0,*50
1517281495.82,27006,9.88,72986.0,-7.15,-8.11,-8.03,0,*53
1517281497.1,27007,9.94,72990.3,-7.17,-8.11,-8.11,0,*53
1517281498.35,27008,9.94,72984.3,-7.15,-8.11,-8.11,0,*5E
1517281499.57,27009,9.88,72976.3,-7.15,-8.17,-8.11,0,*59
1517281500.85,27010,9.94,72978.3,-7.17,-8.11,-8.03,0,*56
1517281502.11,27011,9.88,72978.8,-7.17,-8.03,-8.03,0,*54
1517281503.36,27012,9.94,72980.0,-7.15,-8.11,-8.11,0,*55
1517281504.6,27013,9.94,72984.5,-7.15,-8.03,-8.03,0,*54
1517281505.84,27014,9.88,72982.5,-7.15,-8.03,-8.03,0,*53
1517281507.08,27015,9.94,72984.3,-7.15,-8.03,-8.03,0,*52
1517281508.31,27016,9.88,72980.5,-7.15,-8.03,-8.03,0,*51
1517281509.59,27017,9.94,72984.0,-7.17,-7.99,-7.99,0,*52
1517281510.85,27018,9.94,72980.8,-7.17,-8.03,-8.03,0,*5D
1517281512.1,27019,9.94,72974.3,-7.15,-8.03,-8.11,0,*5D
1517281513.33,27020,9.94,72972.3,-7.15,-8.03,-8.03,0,*54
1517281514.57,27021,9.94,72978.5,-7.15,-8.03,-8.03,0,*55
1517281515.84,27022,9.94,72984.3,-7.17,-8.03,-7.99,0,*58
1517281517.09,27023,9.88,72986.3,-7.15,-7.99,-7.99,0,*57
1517281518.33,27024,9.88,72986.3,-7.15,-7.99,-7.99,0,*50
1517281519.58,27025,9.88,72998.0,-7.15,-7.99,-7.99,0,*51
1517281520.82,27026,9.94,73004.8,-7.15,-7.99,-7.99,0,*52
1517281522.09,27027,9.88,73010.3,-7.17,-7.99,-7.99,0,*51
1517281523.34,27028,9.94,73016.3,-7.15,-7.99,-7.99,0,*5C
1517281524.58,27029,9.88,73020.8,-7.15,-7.99,-7.99,0,*5D
1517281525.83,27030,9.94,73032.3,-7.15,-7.99,-7.95,0,*59
1517281527.07,27031,9.88,73038.8,-7.15,-7.99,-7.99,0,*54
1517281528.32,27032,9.88,73046.0,-7.15,-7.95,-7.99,0,*5B
1517281529.56,27033,9.88,73052.3,-7.15,-7.99,-7.95,0,*5A
1517281530.83,27034,9.88,73058.5,-7.17,-7.95,-7.99,0,*5F
1517281532.1,27035,9.88,73082.3,-7.13,-7.95,-7.99,0,*5A
1517281533.37,27036,9.94,73096.8,-7.13,-7.95,-8.07,0,*51
1517281534.64,27037,9.94,73104.8,-7.13,-7.95,-8.11,0,*57
1517281535.88,27038,9.88,73110.3,-7.13,-7.99,-8.25,0,*53
1517281537.11,27039,9.88,73102.5,-7.13,-8.11,-8.33,0,*5A
1517281538.33,27040,9.94,73110.0,-7.13,-8.21,-8.45,0,*56
1517281539.54,27041,9.88,73098.0,-7.13,-8.37,-8.75,0,*53
1517281540.77,27042,9.88,73094.8,-7.13,-8.71,-9.19,0,*59
1517281541.99,27043,9.88,73084.0,-7.13,-9.05,-9.71,0,*54
1517281543.23,27044,9.88,73066.3,-7.13,-9.57,-10.23,0,*6B
1517281544.46,27045,9.88,73016.0,-7.13,-10.23,-10.35,0,*56
1517281545.67,27046,9.94,73002.5,-7.15,-10.15,-9.75,0,*6A
1517281546.94,27047,9.88,72986.8,-7.17,-9.61,-9.45,0,*51
1517281548.14,27048,9.88,72974.0,-7.15,-9.19,-9.19,0,*5A
1517281549.37,27049,9.88,72968.5,-7.15,-9.05,-9.11,0,*5E
1517281550.61,27050,9.94,72966.8,-7.17,-8.81,-8.97,0,*56
1517281551.83,27051,9.94,72952.5,-7.17,-8.97,-9.23,0,*5E
1517281553.05,27052,9.88,72984.3,-7.17,-9.19,-9.31,0,*59
1517281554.33,27053,9.88,73002.3,-7.17,-9.49,-9.45,0,*5E
1517281555.55,27054,9.88,73030.0,-7.17,-9.31,-9.19,0,*5F
1517281556.78,27055,9.88,73024.8,-7.21,-9.01,-8.93,0,*5B
1517281558.05,27056,9.94,73046.8,-7.21,-9.11,-9.11,0,*52
1517281559.28,27057,9.94,73026.5,-7.21,-9.23,-9.01,0,*53
1517281560.53,27058,9.94,73008.5,-7.21,-9.01,-8.81,0,*55
1517281561.75,27059,9.88,73060.0,-7.21,-8.85,-8.71,0,*56
1517281562.97,27060,9.94,73052.0,-7.21,-8.71,-8.67,0,*50
1517281564.19,27061,9.88,73038.8,-7.21,-8.59,-8.45,0,*5B
1517281565.41,27062,9.94,73046.5,-7.21,-8.45,-8.41,0,*51
1517281566.63,27063,9.94,73038.8,-7.21,-8.41,-8.45,0,*50
1517281567.86,27064,9.94,73042.5,-7.21,-8.41,-8.45,0,*57
1517281569.06,27065,9.88,73036.8,-7.23,-8.55,-8.45,0,*51
1517281570.25,27066,9.88,73038.8,-7.23,-8.55,-8.55,0,*53
1517281571.45,27067,9.88,73044.0,-7.23,-8.45,-8.41,0,*56
1517281572.66,27068,9.94,73040.8,-7.21,-8.41,-8.33,0,*5A
1517281573.88,27069,9.94,73032.8,-7.21,-8.45,-8.55,0,*5F
1517281575.09,27070,9.88,72978.0,-7.21,-8.55,-8.55,0,*56
1517281576.3,27071,9.88,72974.0,-7.21,-8.67,-8.67,0,*57
1517281577.53,27072,9.88,72990.8,-7.23,-8.85,-8.81,0,*52
1517281578.76,27073,9.88,72964.5,-7.23,-9.15,-8.93,0,*58
1517281580.01,27074,9.88,72972.5,-7.21,-9.15,-8.85,0,*5A
1517281581.25,27075,9.88,72952.8,-7.23,-9.11,-8.85,0,*5D
1517281582.45,27076,9.94,72964.8,-7.23,-8.85,-8.85,0,*52
1517281583.65,27077,9.94,72968.0,-7.23,-8.71,-8.67,0,*54
1517281584.89,27078,9.94,72944.3,-7.23,-8.81,-8.81,0,*5C
1517281586.09,27079,9.94,72950.8,-7.25,-8.89,-8.97,0,*54
1517281587.29,27080,9.88,72884.0,-7.25,-8.75,-8.71,0,*59
1517281588.48,27081,9.88,72938.5,-7.25,-8.63,-8.63,0,*5C
1517281589.68,27082,9.88,72898.3,-7.25,-8.71,-8.63,0,*5C
1517281590.88,27083,9.88,72874.5,-7.25,-8.63,-8.71,0,*5D
1517281592.07,27084,9.88,72868.5,-7.25,-8.63,-8.63,0,*59
1517281593.29,27085,9.94,72870.0,-7.25,-8.59,-8.51,0,*50
1517281594.52,27086,9.94,72872.5,-7.27,-8.37,-8.45,0,*5C
1517281595.74,27087,9.94,72892.8,-7.27,-8.45,-8.45,0,*58
1517281596.97,27088,9.94,72900.3,-7.27,-8.45,-8.45,0,*57
1517281598.17,27089,9.88,72896.0,-7.25,-8.45,-8.37,0,*51
1517281599.38,27090,9.88,72914.0,-7.25,-8.37,-8.45,0,*59
1517281600.6,27091,9.88,72924.5,-7.27,-8.37,-8.37,0,*5F
1517281601.8,27092,9.88,72946.0,-7.25,-8.25,-8.25,0,*5E
1517281603.02,27093,9.88,72944.3,-7.25,-8.11,-8.25,0,*58
1517281604.22,27094,9.88,72952.5,-7.25,-8.25,-8.25,0,*58
1517281605.42,27095,9.88,72962.8,-7.25,-8.25,-8.25,0,*59
1517281606.61,27096,9.94,72972.3,-7.25,-8.21,-8.33,0,*59
1517281607.8,27097,9.88,72970.8,-7.25,-8.25,-8.33,0,*5C
1517281609.0,27098,9.88,72964.3,-7.25,-8.33,-8.45,0,*55
1517281610.19,27099,9.88,72962.0,-7.25,-8.45,-8.59,0,*58
1517281611.41,27100,9.94,72968.8,-7.25,-8.51,-8.71,0,*56
1517281612.63,27101,9.94,72970.8,-7.25,-8.51,-8.63,0,*54
1517281613.86,27102,9.88,72978.0,-7.25,-8.51,-8.71,0,*54
1517281615.05,27103,9.94,72992.8,-7.25,-8.59,-8.63,0,*5E
1517281616.24,27104,9.88,72982.3,-7.23,-8.45,-8.67,0,*56
1517281617.43,27105,9.88,72990.5,-7.25,-8.59,-8.63,0,*58
1517281618.63,27106,9.88,73004.8,-7.25,-8.59,-8.85,0,*53
1517281619.84,27107,9.88,73012.3,-7.25,-8.59,-8.85,0,*52
1517281621.04,27108,9.88,73000.3,-7.25,-8.71,-8.97,0,*54
1517281622.27,27109,9.94,72994.3,-7.25,-8.85,-9.15,0,*55
1517281623.5,27110,9.88,72992.8,-7.25,-9.05,-9.45,0,*51
1517281624.75,27111,9.88,72984.0,-7.25,-9.41,-9.83,0,*5A
1517281625.95,27112,9.88,72986.3,-7.25,-9.89,-10.27,0,*6B
1517281627.16,27113,9.88,73002.3,-7.25,-10.27,-10.53,0,*55
1517281628.37,27114,9.94,72998.3,-7.25,-10.93,-10.93,0,*51
1517281629.62,27115,9.88,73004.3,-7.25,-11.23,-10.67,0,*51
1517281630.85,27116,9.88,73010.0,-7.25,-10.75,-9.79,0,*67
1517281632.07,27117,9.88,72984.5,-7.25,-9.97,-9.41,0,*59
1517281633.26,27118,9.88,72966.3,-7.25,-9.67,-9.31,0,*5E
1517281634.51,27119,9.94,72970.5,-7.27,-9.71,-9.45,0,*59
1517281635.77,27120,9.94,72964.3,-7.27,-9.41,-9.01,0,*50
1517281637.0,27121,9.88,72962.5,-7.27,-9.01,-8.85,0,*58
1517281638.22,27122,9.94,72954.0,-7.27,-8.89,-8.75,0,*55
1517281639.43,27123,9.88,72932.0,-7.29,-8.81,-8.75,0,*52
1517281640.65,27124,9.88,72916.3,-7.27,-8.63,-8.71,0,*53
1517281641.91,27125,9.94,72970.5,-7.27,-8.51,-8.45,0,*54
1517281643.15,27126,9.88,72940.0,-7.27,-8.51,-8.59,0,*5A
1517281644.37,27127,9.94,72974.0,-7.27,-8.45,-8.63,0,*57
1517281645.62,27128,9.94,72948.5,-7.27,-8.51,-8.71,0,*5E
1517281646.81,27129,9.88,72962.8,-7.29,-8.75,-8.89,0,*50
1517281648.07,27130,9.88,72942.0,-7.31,-9.15,-9.79,0,*58
1517281649.28,27131,9.94,72934.5,-7.29,-9.71,-10.19,0,*6C
1517281650.51,27132,9.88,72916.3,-7.29,-10.41,-11.15,0,*59
1517281651.74,27133,9.94,72904.0,-7.29,-11.55,-12.21,0,*58
1517281652.97,27134,9.88,72920.3,-7.29,-12.07,-12.39,0,*52
1517281654.26,27135,9.94,72934.8,-7.31,-12.11,-11.55,0,*54
1517281655.52,27136,9.94,72912.5,-7.31,-10.93,-10.75,0,*5C
1517281656.76,27137,9.88,72870.5,-7.31,-10.45,-10.19,0,*5C
1517281657.99,27138,9.88,72894.5,-7.31,-10.19,-9.75,0,*68
1517281659.23,27139,9.88,72934.5,-7.31,-9.89,-9.49,0,*57
1517281660.43,27140,9.94,72944.0,-7.33,-9.27,-9.05,0,*57
1517281661.63,27141,9.88,72922.3,-7.33,-8.97,-8.97,0,*56
1517281662.86,27142,9.88,72954.3,-7.33,-9.27,-9.11,0,*50
1517281664.1,27143,9.94,72938.8,-7.35,-9.83,-9.19,0,*51
1517281665.3,27144,9.94,72944.0,-7.33,-9.27,-8.93,0,*5D
1517281666.5,27145,9.88,72922.3,-7.33,-9.05,-8.85,0,*5B
1517281667.74,27146,9.88,72896.5,-7.35,-9.01,-8.97,0,*59
1517281668.94,27147,9.94,72874.3,-7.33,-8.97,-8.85,0,*53
1517281670.16,27148,9.94,72896.0,-7.33,-8.81,-8.71,0,*50
1517281671.36,27149,9.88,72896.0,-7.33,-8.71,-8.59,0,*54
1517281672.55,27150,9.88,72902.8,-7.33,-8.59,-8.59,0,*56
1517281673.74,27151,9.94,72902.5,-7.33,-8.55,-8.55,0,*57
1517281674.93,27152,9.94,72856.5,-7.33,-8.59,-8.67,0,*59
1517281676.14,27153,9.88,72894.5,-7.33,-8.55,-8.45,0,*54
1517281677.33,27154,9.88,72910.5,-7.33,-8.33,-8.33,0,*52
1517281678.52,27155,9.94,72906.5,-7.33,-8.21,-8.29,0,*5B
1517281679.71,27156,9.94,72920.5,-7.33,-8.29,-8.29,0,*50
1517281680.91,27157,9.94,72936.5,-7.33,-8.21,-8.29,0,*59
1517281682.11,27158,9.88,72934.3,-7.33,-8.21,-8.21,0,*5E
1517281683.31,27159,9.94,72940.3,-7.33,-8.29,-8.21,0,*57
1517281684.5,27160,9.94,72960.3,-7.33,-8.21,-8.21,0,*55
1517281685.72,27161,9.94,72956.5,-7.31,-8.29,-8.21,0,*5E
1517281686.95,27162,9.94,72970.5,-7.31,-8.29,-8.21,0,*5D
1517281688.17,27163,9.88,72960.8,-7.31,-8.21,-8.21,0,*54
1517281689.36,27164,9.88,72954.0,-7.29,-8.21,-8.21,0,*5A
1517281690.58,27165,9.94,72978.8,-7.31,-8.21,-8.29,0,*5A
1517281691.79,27166,9.94,72968.5,-7.31,-8.29,-8.41,0,*5F
1517281693.02,27167,9.88,72942.0,-7.31,-8.45,-8.45,0,*50
1517281694.23,27168,9.88,72928.3,-7.31,-8.33,-8.33,0,*5F
1517281695.45,27169,9.88,72936.8,-7.31,-8.21,-8.29,0,*56
1517281696.67,27170,9.94,72948.0,-7.31,-8.29,-8.21,0,*5E
1517281697.89,27171,9.88,72942.5,-7.31,-8.29,-8.21,0,*5F
1517281699.1,27172,9.88,72946.5,-7.31,-8.29,-8.29,0,*54
1517281700.32,27173,9.94,72946.8,-7.31,-8.21,-8.29,0,*5D
1517281701.51,27174,9.94,72944.8,-7.29,-8.29,-8.29,0,*5B
1517281702.71,27175,9.94,72964.0,-7.29,-8.37,-8.37,0,*5A
1517281703.91,27176,9.94,72952.8,-7.29,-8.37,-8.37,0,*59
1517281705.11,27177,9.88,72962.5,-7.29,-8.37,-8.37,0,*58
1517281706.33,27178,9.94,72958.5,-7.31,-8.41,-8.41,0,*5E
1517281707.55,27179,9.88,72960.3,-7.29,-8.37,-8.51,0,*56
1517281708.74,27180,9.88,72962.3,-7.29,-8.37,-8.41,0,*51
1517281709.98,27181,9.94,72964.8,-7.29,-8.51,-8.51,0,*51
1517281711.2,27182,9.88,72938.3,-7.31,-8.59,-8.71,0,*51
1517281712.45,27183,9.88,72964.8,-7.31,-8.81,-8.85,0,*5E
1517281713.68,27184,9.88,72954.3,-7.31,-8.93,-8.85,0,*5A
1517281714.89,27185,9.88,72910.3,-7.29,-8.81,-8.67,0,*5D
1517281716.1,27186,9.88,72938.5,-7.29,-8.55,-8.51,0,*52
1517281717.33,27187,9.88,72946.3,-7.31,-8.45,-8.45,0,*5E